| time (UTC) | temp C | wind direction | speed KPH | gust KPH | rain 1hr cm | rain 24hr cm | rain mn cm | humidity % | barometer mb |
| 20260503054928 | 11 | 271 | 0.0 | 0.0 | 0.00 | 0.13 | 0.13 | 87 | 1020.8 |
| 20260503054425 | 11 | 271 | 0.0 | 0.0 | 0.00 | 0.13 | 0.13 | 88 | 1020.9 |
| 20260503053923 | 11 | 271 | 0.0 | 0.0 | 0.00 | 0.13 | 0.13 | 88 | 1021.0 |
| 20260503053420 | 11 | 271 | 0.0 | 0.0 | 0.00 | 0.13 | 0.13 | 87 | 1020.8 |
| 20260503052916 | 11 | 271 | 0.0 | 0.0 | 0.00 | 0.13 | 0.13 | 86 | 1021.0 |
| 20260503052414 | 11 | 271 | 0.0 | 0.0 | 0.00 | 0.13 | 0.13 | 85 | 1021.0 |
| 20260503051910 | 11 | 271 | 0.0 | 0.0 | 0.00 | 0.13 | 0.13 | 86 | 1020.9 |
| 20260503051406 | 11 | 271 | 0.0 | 0.0 | 0.00 | 0.13 | 0.13 | 85 | 1021.2 |
| 20260503050903 | 11 | 271 | 0.0 | 0.0 | 0.00 | 0.13 | 0.13 | 84 | 1021.2 |
| 20260503050359 | 11 | 271 | 0.0 | 0.0 | 0.00 | 0.13 | 0.13 | 84 | 1021.0 |
| 20260503045857 | 11 | 271 | 0.0 | 0.0 | 0.00 | 0.13 | 0.13 | 84 | 1021.3 |
| 20260503045354 | 12 | 271 | 0.0 | 1.6 | 0.00 | 0.13 | 0.13 | 84 | 1021.2 |
| 20260503044851 | 12 | 271 | 0.0 | 0.0 | 0.00 | 0.13 | 0.13 | 84 | 1021.2 |
| 20260503044348 | 12 | 271 | 0.0 | 1.6 | 0.00 | 0.13 | 0.13 | 83 | 1021.2 |
| 20260503043845 | 12 | 271 | 1.6 | 1.6 | 0.00 | 0.13 | 0.13 | 83 | 1021.2 |
| 20260503043342 | 12 | 271 | 0.0 | 0.0 | 0.00 | 0.13 | 0.13 | 83 | 1021.2 |
| 20260503042838 | 11 | 271 | 0.0 | 1.6 | 0.00 | 0.13 | 0.13 | 82 | 1021.1 |
| 20260503042335 | 11 | 271 | 0.0 | 0.0 | 0.00 | 0.13 | 0.13 | 84 | 1020.9 |
| 20260503041830 | 11 | 271 | 1.6 | 1.6 | 0.00 | 0.13 | 0.13 | 84 | 1020.9 |
| 20260503041328 | 11 | 271 | 1.6 | 1.6 | 0.00 | 0.13 | 0.13 | 83 | 1020.5 |
| 20260503040826 | 11 | 271 | 0.0 | 1.6 | 0.00 | 0.13 | 0.13 | 82 | 1021.0 |
| 20260503040323 | 12 | 273 | 1.6 | 1.6 | 0.13 | 0.13 | 0.13 | 82 | 1020.7 |
| 20260503035820 | 12 | 349 | 1.6 | 1.6 | 0.13 | 0.13 | 0.13 | 78 | 1020.7 |
| 20260503035317 | 12 | 310 | 3.2 | 3.2 | 0.00 | 0.10 | 0.10 | 79 | 1020.5 |
| 20260503034814 | 12 | 311 | 0.0 | 0.0 | 0.00 | 0.10 | 0.10 | 80 | 1020.9 |
| 20260503034312 | 12 | 316 | 0.0 | 1.6 | 0.00 | 0.10 | 0.10 | 78 | 1020.8 |
| 20260503033809 | 12 | 324 | 0.0 | 0.0 | 0.18 | 0.10 | 0.10 | 75 | 1021.0 |
| 20260503033306 | 13 | 328 | 0.0 | 1.6 | 0.18 | 0.10 | 0.10 | 72 | 1021.0 |
| 20260503032804 | 13 | 257 | 1.6 | 1.6 | 0.00 | 0.08 | 0.08 | 70 | 1020.9 |
| 20260503032304 | 13 | 256 | 3.2 | 3.2 | 0.00 | 0.08 | 0.08 | 65 | 1021.0 |
| 20260503031759 | 13 | 310 | 0.0 | 0.0 | 0.00 | 0.08 | 0.08 | 67 | 1020.9 |
| 20260503031258 | 13 | 311 | 3.2 | 4.8 | 0.00 | 0.08 | 0.08 | 67 | 1020.7 |
| 20260503030753 | 14 | 334 | 1.6 | 1.6 | 0.00 | 0.08 | 0.08 | 64 | 1020.9 |
| 20260503030250 | 14 | 206 | 0.0 | 1.6 | 0.00 | 0.08 | 0.08 | 64 | 1021.1 |
| 20260503025747 | 14 | 196 | 1.6 | 1.6 | 0.00 | 0.08 | 0.08 | 64 | 1020.8 |
| 20260503025244 | 13 | 301 | 0.0 | 0.0 | 0.00 | 0.08 | 0.08 | 63 | 1020.5 |
| 20260503024741 | 13 | 306 | 1.6 | 1.6 | 0.00 | 0.08 | 0.08 | 63 | 1020.1 |
| 20260503024238 | 13 | 309 | 0.0 | 1.6 | 0.00 | 0.08 | 0.08 | 66 | 1020.2 |
| 20260503023735 | 13 | 315 | 1.6 | 3.2 | 0.00 | 0.08 | 0.08 | 67 | 1019.9 |
| 20260503023232 | 13 | 322 | 4.8 | 4.8 | 0.00 | 0.08 | 0.08 | 66 | 1019.9 |
| 20260503022728 | 13 | 308 | 1.6 | 1.6 | 0.00 | 0.08 | 0.08 | 66 | 1019.7 |
| 20260503022228 | 13 | 303 | 3.2 | 4.8 | 0.00 | 0.08 | 0.08 | 68 | 1019.9 |
| 20260503021725 | 13 | 308 | 6.4 | 8.0 | 0.00 | 0.08 | 0.08 | 68 | 1019.6 |
| 20260503021221 | 13 | 329 | 4.8 | 8.0 | 0.00 | 0.08 | 0.08 | 68 | 1019.4 |
| 20260503020719 | 13 | 287 | 1.6 | 3.2 | 0.00 | 0.08 | 0.08 | 69 | 1019.6 |
| 20260503020216 | 14 | 321 | 6.4 | 9.7 | 0.00 | 0.08 | 0.08 | 68 | 1019.5 |
| 20260503015713 | 14 | 333 | 6.4 | 8.0 | 0.00 | 0.08 | 0.08 | 66 | 1019.6 |
| 20260503015210 | 14 | 298 | 6.4 | 9.7 | 0.00 | 0.08 | 0.08 | 68 | 1019.5 |
| 20260503014705 | 15 | 292 | 4.8 | 8.0 | 0.00 | 0.08 | 0.08 | 67 | 1019.5 |
| 20260503014203 | 15 | 297 | 6.4 | 9.7 | 0.00 | 0.08 | 0.08 | 66 | 1019.6 |
| 20260503013700 | 15 | 259 | 8.0 | 11.3 | 0.00 | 0.08 | 0.08 | 63 | 1019.4 |
| 20260503013158 | 15 | 261 | 6.4 | 9.7 | 0.00 | 0.08 | 0.08 | 65 | 1019.4 |
| 20260503012655 | 15 | 309 | 6.4 | 11.3 | 0.00 | 0.08 | 0.08 | 66 | 1019.5 |
| 20260503012152 | 16 | 294 | 6.4 | 9.7 | 0.00 | 0.08 | 0.08 | 59 | 1019.3 |
| 20260503011648 | 16 | 315 | 4.8 | 9.7 | 0.00 | 0.08 | 0.08 | 58 | 1019.3 |
| 20260503011146 | 16 | 313 | 4.8 | 4.8 | 0.00 | 0.08 | 0.08 | 60 | 1019.4 |
| 20260503010642 | 16 | 311 | 4.8 | 4.8 | 0.00 | 0.08 | 0.08 | 61 | 1019.5 |
| 20260503010139 | 16 | 297 | 4.8 | 8.0 | 0.00 | 0.08 | 0.08 | 60 | 1019.5 |
| 20260503005636 | 16 | 335 | 0.0 | 1.6 | 0.00 | 0.08 | 0.08 | 55 | 1019.7 |
| 20260503005133 | 16 | 87 | 4.8 | 4.8 | 0.00 | 0.08 | 0.08 | 50 | 1019.6 |
| 20260503004630 | 16 | 270 | 1.6 | 1.6 | 0.13 | 0.08 | 0.08 | 57 | 1019.5 |
| 20260503004128 | 16 | 152 | 9.7 | 12.9 | 0.13 | 0.08 | 0.08 | 53 | 1019.6 |
| 20260503003625 | 16 | 16 | 0.0 | 1.6 | 0.00 | 0.05 | 0.05 | 55 | 1019.5 |
| 20260503003122 | 15 | 339 | 4.8 | 4.8 | 0.00 | 0.05 | 0.05 | 57 | 1019.6 |
| 20260503002619 | 15 | 204 | 0.0 | 1.6 | 0.18 | 0.05 | 0.05 | 64 | 1019.6 |
| 20260503002115 | 16 | 149 | 4.8 | 4.8 | 0.30 | 0.05 | 0.05 | 58 | 1019.5 |
| 20260503001611 | 18 | 148 | 9.7 | 11.3 | 0.13 | 0.03 | 0.03 | 50 | 1018.9 |
| 20260503001109 | 20 | 177 | 4.8 | 4.8 | 0.00 | 0.00 | 0.00 | 38 | 1018.6 |
| 20260503000606 | 20 | 211 | 4.8 | 4.8 | 0.00 | 0.00 | 0.00 | 31 | 1018.1 |
| 20260503000103 | 20 | 205 | 0.0 | 3.2 | 0.00 | 0.00 | 0.00 | 31 | 1018.3 |
| 20260502235600 | 20 | 220 | 0.0 | 1.6 | 0.00 | 0.00 | 0.00 | 32 | 1018.3 |
| 20260502235058 | 20 | 345 | 1.6 | 4.8 | 0.00 | 0.00 | 0.00 | 32 | 1018.1 |
| 20260502234553 | 20 | 13 | 0.0 | 0.0 | 0.00 | 0.00 | 0.00 | 33 | 1018.3 |
| 20260502234052 | 20 | 14 | 3.2 | 3.2 | 0.00 | 0.00 | 0.00 | 34 | 1018.3 |
| 20260502233551 | 20 | 302 | 1.6 | 3.2 | 0.00 | 0.00 | 0.00 | 34 | 1018.4 |
| 20260502233049 | 20 | 13 | 4.8 | 4.8 | 0.00 | 0.00 | 0.00 | 34 | 1018.3 |
| 20260502232545 | 20 | 162 | 6.4 | 9.7 | 0.00 | 0.00 | 0.00 | 33 | 1018.4 |
| 20260502232042 | 21 | 185 | 11.3 | 14.5 | 0.00 | 0.00 | 0.00 | 31 | 1018.0 |
| 20260502231539 | 21 | 213 | 1.6 | 3.2 | 0.00 | 0.00 | 0.00 | 29 | 1018.5 |
| 20260502231037 | 21 | 178 | 4.8 | 4.8 | 0.00 | 0.00 | 0.00 | 29 | 1018.3 |
| 20260502230535 | 21 | 215 | 4.8 | 8.0 | 0.00 | 0.00 | 0.00 | 29 | 1018.0 |
| 20260502230033 | 22 | 183 | 4.8 | 4.8 | 0.00 | 0.00 | 0.00 | 28 | 1017.9 |
| 20260502225528 | 22 | 206 | 3.2 | 3.2 | 0.00 | 0.00 | 0.00 | 29 | 1018.3 |
| 20260502225026 | 22 | 176 | 3.2 | 4.8 | 0.00 | 0.00 | 0.00 | 28 | 1018.1 |
| 20260502224522 | 22 | 218 | 3.2 | 3.2 | 0.00 | 0.00 | 0.00 | 28 | 1018.1 |
| 20260502224019 | 22 | 218 | 1.6 | 3.2 | 0.00 | 0.00 | 0.00 | 28 | 1018.5 |
| 20260502223517 | 22 | 234 | 1.6 | 3.2 | 0.00 | 0.00 | 0.00 | 29 | 1018.6 |
| 20260502223015 | 22 | 221 | 3.2 | 3.2 | 0.00 | 0.00 | 0.00 | 28 | 1018.5 |
| 20260502222512 | 22 | 222 | 3.2 | 3.2 | 0.00 | 0.00 | 0.00 | 29 | 1018.6 |
| 20260502222008 | 23 | 233 | 3.2 | 4.8 | 0.00 | 0.00 | 0.00 | 28 | 1018.4 |
| 20260502221504 | 22 | 205 | 3.2 | 4.8 | 0.00 | 0.00 | 0.00 | 28 | 1018.8 |
| 20260502221002 | 22 | 231 | 1.6 | 4.8 | 0.00 | 0.00 | 0.00 | 28 | 1018.9 |
| 20260502220456 | 22 | 237 | 3.2 | 8.0 | 0.00 | 0.00 | 0.00 | 28 | 1018.8 |
| 20260502215954 | 21 | 245 | 3.2 | 3.2 | 0.00 | 0.00 | 0.00 | 29 | 1018.9 |
| 20260502215451 | 21 | 256 | 1.6 | 3.2 | 0.00 | 0.00 | 0.00 | 29 | 1018.9 |
| 20260502214948 | 21 | 244 | 3.2 | 8.0 | 0.00 | 0.00 | 0.00 | 29 | 1018.9 |
| 20260502214445 | 21 | 253 | 3.2 | 8.0 | 0.00 | 0.00 | 0.00 | 29 | 1018.9 |
| 20260502213942 | 21 | 257 | 3.2 | 4.8 | 0.00 | 0.00 | 0.00 | 29 | 1019.3 |
| 20260502213438 | 21 | 262 | 6.4 | 8.0 | 0.00 | 0.00 | 0.00 | 27 | 1019.3 |
| 20260502212937 | 21 | 251 | 9.7 | 12.9 | 0.00 | 0.00 | 0.00 | 26 | 1019.3 |
| 20260502212436 | 21 | 260 | 4.8 | 8.0 | 0.00 | 0.00 | 0.00 | 29 | 1019.5 |
| 20260502211932 | 21 | 210 | 9.7 | 11.3 | 0.00 | 0.00 | 0.00 | 26 | 1019.5 |
| 20260502211428 | 21 | 231 | 1.6 | 4.8 | 0.00 | 0.00 | 0.00 | 27 | 1019.5 |
| 20260502210926 | 21 | 250 | 3.2 | 3.2 | 0.00 | 0.00 | 0.00 | 28 | 1019.6 |
| 20260502210422 | 22 | 247 | 0.0 | 1.6 | 0.00 | 0.00 | 0.00 | 29 | 1019.5 |
| 20260502205920 | 22 | 240 | 1.6 | 3.2 | 0.00 | 0.00 | 0.00 | 27 | 1019.7 |
| 20260502205416 | 22 | 249 | 1.6 | 3.2 | 0.00 | 0.00 | 0.00 | 28 | 1020.0 |
| 20260502204913 | 22 | 246 | 1.6 | 1.6 | 0.00 | 0.00 | 0.00 | 29 | 1019.7 |
| 20260502204410 | 22 | 214 | 1.6 | 1.6 | 0.00 | 0.00 | 0.00 | 29 | 1019.7 |
| 20260502203908 | 22 | 218 | 1.6 | 1.6 | 0.00 | 0.00 | 0.00 | 27 | 1019.9 |
| 20260502203405 | 22 | 243 | 0.0 | 0.0 | 0.00 | 0.00 | 0.00 | 27 | 1019.9 |
| 20260502202900 | 22 | 283 | 3.2 | 4.8 | 0.00 | 0.00 | 0.00 | 28 | 1019.9 |
| 20260502202358 | 22 | 233 | 1.6 | 1.6 | 0.00 | 0.00 | 0.00 | 28 | 1020.0 |
| 20260502201856 | 22 | 246 | 0.0 | 0.0 | 0.00 | 0.00 | 0.00 | 28 | 1019.9 |
| 20260502201351 | 22 | 222 | 0.0 | 0.0 | 0.00 | 0.00 | 0.00 | 27 | 1019.7 |
| 20260502200848 | 22 | 204 | 1.6 | 1.6 | 0.00 | 0.00 | 0.00 | 26 | 1019.9 |
| 20260502200344 | 22 | 224 | 3.2 | 4.8 | 0.00 | 0.00 | 0.00 | 26 | 1019.9 |
| 20260502195842 | 23 | 206 | 3.2 | 3.2 | 0.00 | 0.00 | 0.00 | 26 | 1019.7 |
| 20260502195338 | 23 | 225 | 1.6 | 1.6 | 0.00 | 0.00 | 0.00 | 26 | 1020.1 |
| 20260502194835 | 23 | 238 | 4.8 | 8.0 | 0.00 | 0.00 | 0.00 | 26 | 1020.2 |
| 20260502194332 | 22 | 223 | 1.6 | 1.6 | 0.00 | 0.00 | 0.00 | 28 | 1020.1 |
| 20260502193828 | 22 | 213 | 3.2 | 4.8 | 0.00 | 0.00 | 0.00 | 26 | 1020.2 |
| 20260502193325 | 23 | 251 | 3.2 | 3.2 | 0.00 | 0.00 | 0.00 | 27 | 1020.1 |
| 20260502192821 | 22 | 232 | 3.2 | 4.8 | 0.00 | 0.00 | 0.00 | 27 | 1020.3 |
| 20260502192318 | 22 | 246 | 4.8 | 8.0 | 0.00 | 0.00 | 0.00 | 27 | 1020.1 |
| 20260502191815 | 23 | 180 | 4.8 | 12.9 | 0.00 | 0.00 | 0.00 | 27 | 1020.0 |
| 20260502191313 | 22 | 173 | 6.4 | 9.7 | 0.00 | 0.00 | 0.00 | 26 | 1020.2 |
| 20260502190810 | 23 | 39 | 6.4 | 8.0 | 0.00 | 0.00 | 0.00 | 26 | 1020.1 |
| 20260502190307 | 23 | 163 | 3.2 | 4.8 | 0.00 | 0.00 | 0.00 | 26 | 1020.2 |
| 20260502185803 | 23 | 209 | 3.2 | 8.0 | 0.00 | 0.00 | 0.00 | 24 | 1020.2 |
| 20260502185259 | 24 | 217 | 4.8 | 11.3 | 0.00 | 0.00 | 0.00 | 25 | 1020.5 |
| 20260502184756 | 23 | 243 | 1.6 | 3.2 | 0.00 | 0.00 | 0.00 | 25 | 1020.4 |
| 20260502184251 | 23 | 240 | 1.6 | 1.6 | 0.00 | 0.00 | 0.00 | 26 | 1020.2 |
| 20260502183748 | 22 | 269 | 1.6 | 1.6 | 0.00 | 0.00 | 0.00 | 26 | 1020.4 |
| 20260502183244 | 23 | 272 | 1.6 | 1.6 | 0.00 | 0.00 | 0.00 | 29 | 1020.8 |
| 20260502182739 | 23 | 280 | 0.0 | 1.6 | 0.00 | 0.00 | 0.00 | 32 | 1020.5 |
| 20260502182235 | 21 | 323 | 1.6 | 3.2 | 0.00 | 0.00 | 0.00 | 30 | 1020.8 |
| 20260502181732 | 21 | 326 | 1.6 | 3.2 | 0.00 | 0.00 | 0.00 | 33 | 1020.9 |
| 20260502181231 | 21 | 358 | 1.6 | 1.6 | 0.00 | 0.00 | 0.00 | 33 | 1020.8 |
| 20260502180728 | 21 | 312 | 0.0 | 1.6 | 0.00 | 0.00 | 0.00 | 31 | 1020.8 |
| 20260502180226 | 21 | 315 | 3.2 | 4.8 | 0.00 | 0.00 | 0.00 | 33 | 1021.0 |
| 20260502170150 | 19 | 313 | 0.0 | 0.0 | 0.00 | 0.00 | 0.00 | 35 | 1021.3 |
| 20260502164136 | 18 | 316 | 1.6 | 1.6 | 0.00 | 0.00 | 0.00 | 34 | 1021.2 |
| 20260502163632 | 17 | 323 | 0.0 | 1.6 | 0.00 | 0.00 | 0.00 | 35 | 1021.0 |
| 20260502163129 | 17 | 333 | 1.6 | 3.2 | 0.00 | 0.00 | 0.00 | 35 | 1021.5 |
| 20260502162626 | 16 | 321 | 1.6 | 1.6 | 0.00 | 0.00 | 0.00 | 37 | 1021.2 |
| 20260502162123 | 17 | 9 | 3.2 | 3.2 | 0.00 | 0.00 | 0.00 | 36 | 1021.2 |
| 20260502161620 | 16 | 313 | 3.2 | 4.8 | 0.00 | 0.00 | 0.00 | 37 | 1021.2 |
| 20260502161117 | 17 | 295 | 1.6 | 3.2 | 0.00 | 0.00 | 0.00 | 35 | 1021.5 |
| 20260502160615 | 17 | 304 | 0.0 | 0.0 | 0.00 | 0.00 | 0.00 | 36 | 1021.5 |
| 20260502160114 | 17 | 275 | 0.0 | 0.0 | 0.00 | 0.00 | 0.00 | 37 | 1021.5 |
| 20260502152028 | 14 | 219 | 0.0 | 0.0 | 0.00 | 0.00 | 0.00 | 44 | 1021.5 |
| 20260502151525 | 13 | 218 | 0.0 | 0.0 | 0.00 | 0.00 | 0.00 | 48 | 1021.6 |
| 20260502151022 | 12 | 218 | 0.0 | 0.0 | 0.00 | 0.00 | 0.00 | 50 | 1021.7 |
| 20260502150519 | 12 | 218 | 0.0 | 0.0 | 0.00 | 0.00 | 0.00 | 49 | 1021.3 |
| 20260502130404 | 9 | 209 | 1.6 | 1.6 | 0.00 | 0.00 | 0.00 | 49 | 1020.7 |
| 20260502123347 | 9 | 209 | 0.0 | 0.0 | 0.00 | 0.00 | 0.00 | 49 | 1020.7 |
| 20260502122844 | 10 | 208 | 0.0 | 1.6 | 0.00 | 0.00 | 0.00 | 47 | 1020.5 |
| 20260502122340 | 10 | 208 | 0.0 | 0.0 | 0.00 | 0.00 | 0.00 | 46 | 1020.4 |
| 20260502121839 | 10 | 208 | 1.6 | 1.6 | 0.00 | 0.00 | 0.00 | 46 | 1020.4 |
| 20260502121335 | 9 | 208 | 1.6 | 1.6 | 0.00 | 0.00 | 0.00 | 45 | 1020.5 |
| 20260502120833 | 10 | 208 | 0.0 | 0.0 | 0.00 | 0.00 | 0.00 | 46 | 1020.3 |
| 20260502120329 | 10 | 208 | 0.0 | 0.0 | 0.00 | 0.00 | 0.00 | 45 | 1020.5 |
| 20260502115826 | 10 | 208 | 0.0 | 0.0 | 0.00 | 0.00 | 0.00 | 45 | 1020.4 |
| 20260502115324 | 10 | 208 | 0.0 | 0.0 | 0.00 | 0.00 | 0.00 | 44 | 1020.3 |
| 20260502114820 | 10 | 207 | 1.6 | 1.6 | 0.00 | 0.00 | 0.00 | 43 | 1020.5 |
| 20260502114317 | 10 | 208 | 0.0 | 1.6 | 0.00 | 0.00 | 0.00 | 42 | 1020.4 |
| 20260502113814 | 11 | 207 | 0.0 | 1.6 | 0.00 | 0.00 | 0.00 | 41 | 1020.3 |
| 20260502113311 | 10 | 210 | 1.6 | 1.6 | 0.00 | 0.00 | 0.00 | 41 | 1020.5 |
| 20260502112809 | 10 | 210 | 0.0 | 0.0 | 0.00 | 0.00 | 0.00 | 42 | 1020.5 |
| 20260502112306 | 10 | 210 | 0.0 | 0.0 | 0.00 | 0.00 | 0.00 | 41 | 1020.4 |
| 20260502111804 | 10 | 210 | 0.0 | 0.0 | 0.00 | 0.00 | 0.00 | 41 | 1020.4 |
| 20260502111301 | 10 | 209 | 0.0 | 0.0 | 0.00 | 0.00 | 0.00 | 41 | 1020.7 |
| 20260502110758 | 10 | 209 | 0.0 | 0.0 | 0.00 | 0.00 | 0.00 | 41 | 1020.5 |
| 20260502110256 | 10 | 214 | 1.6 | 1.6 | 0.00 | 0.00 | 0.00 | 41 | 1020.4 |
| 20260502105754 | 10 | 213 | 0.0 | 1.6 | 0.00 | 0.00 | 0.00 | 42 | 1020.4 |
| 20260502105250 | 10 | 213 | 1.6 | 1.6 | 0.00 | 0.00 | 0.00 | 42 | 1020.4 |
| 20260502104748 | 10 | 213 | 0.0 | 0.0 | 0.00 | 0.00 | 0.00 | 41 | 1020.3 |
| 20260502104245 | 10 | 213 | 0.0 | 0.0 | 0.00 | 0.00 | 0.00 | 41 | 1020.4 |
| 20260502103743 | 10 | 213 | 1.6 | 3.2 | 0.00 | 0.00 | 0.00 | 41 | 1020.5 |
| 20260502103240 | 9 | 214 | 1.6 | 1.6 | 0.00 | 0.00 | 0.00 | 42 | 1020.5 |
| 20260502102738 | 8 | 214 | 0.0 | 0.0 | 0.00 | 0.00 | 0.00 | 46 | 1020.2 |
| 20260502102233 | 10 | 214 | 0.0 | 0.0 | 0.00 | 0.00 | 0.00 | 47 | 1020.4 |
| 20260502101732 | 10 | 214 | 0.0 | 0.0 | 0.00 | 0.00 | 0.00 | 39 | 1020.4 |
| 20260502101230 | 11 | 214 | 0.0 | 0.0 | 0.00 | 0.00 | 0.00 | 38 | 1020.3 |
| 20260502100727 | 11 | 214 | 0.0 | 1.6 | 0.00 | 0.00 | 0.00 | 37 | 1020.1 |
| 20260502100226 | 11 | 214 | 0.0 | 1.6 | 0.00 | 0.00 | 0.00 | 37 | 1020.3 |
| 20260502091200 | 7 | 231 | 0.0 | 0.0 | 0.00 | 0.00 | 0.00 | 50 | 1020.5 |
| 20260502090657 | 8 | 231 | 0.0 | 0.0 | 0.00 | 0.00 | 0.00 | 54 | 1020.5 |
| 20260502090154 | 8 | 231 | 0.0 | 0.0 | 0.00 | 0.00 | 0.00 | 47 | 1020.8 |
| 20260502080111 | 11 | 231 | 0.0 | 0.0 | 0.00 | 0.00 | 0.00 | 37 | 1021.2 |
| 20260502071043 | 12 | 230 | 0.0 | 0.0 | 0.00 | 0.00 | 0.00 | 35 | 1021.3 |
| 20260502070542 | 12 | 230 | 0.0 | 0.0 | 0.00 | 0.00 | 0.00 | 36 | 1021.7 |